This is the latest recevied weather packets stored in our database for station/object VE3TEJ. If no packets are shown the sender has not sent any weather packets the latest 10 day(s).
| Time | Temp. | Humidity | Pressure | Rain* | Wind** | Luminosity | Snow |
|---|---|---|---|---|---|---|---|
| 1778100157 | 8.89° C | 53% | 1010.5 hPa | 0 mm | - | - | - |
| 1778099859 | 8.33° C | 52% | 1010.7 hPa | 0 mm | - | - | - |
| 1778099558 | 9.44° C | 51% | 1010.6 hPa | 0 mm | - | - | - |
| 1778099258 | 8.89° C | 53% | 1010.7 hPa | 0 mm | - | - | - |
| 1778098958 | 8.89° C | 53% | 1010.7 hPa | 0 mm | - | - | - |
| 1778098657 | 8.89° C | 55% | 1010.7 hPa | 0 mm | - | - | - |
| 1778098359 | 8.33° C | 56% | 1010.7 hPa | 0 mm | - | - | - |
| 1778098058 | 7.78° C | 56% | 1010.6 hPa | 0 mm | - | - | - |
| 1778097758 | 8.33° C | 55% | 1010.7 hPa | 0 mm | - | - | - |
| 1778097457 | 8.33° C | 54% | 1010.5 hPa | 0 mm | - | - | - |
| 1778097159 | 8.33° C | 54% | 1010.7 hPa | 0 mm | - | - | - |
| 1778096859 | 8.33° C | 55% | 1010.5 hPa | 0 mm | - | - | - |
| 1778096558 | 8.89° C | 56% | 1010.7 hPa | 0 mm | - | - | - |
| 1778096258 | 9.44° C | 53% | 1010.4 hPa | 0 mm | - | - | - |
| 1778095957 | 9.44° C | 54% | 1010.3 hPa | 0 mm | - | - | - |
| 1778095657 | 8.89° C | 57% | 1010.3 hPa | 0 mm | - | - | - |
| 1778095358 | 8.33° C | 56% | 1010.5 hPa | 0 mm | - | - | - |
| 1778095058 | 8.33° C | 56% | 1010.2 hPa | 0 mm | - | - | - |
| 1778094758 | 8.33° C | 56% | 1010.4 hPa | 0 mm | - | - | - |
| 1778094457 | 8.89° C | 58% | 1010.6 hPa | 0 mm | - | - | - |
| 1778094159 | 8.89° C | 58% | 1010.6 hPa | 0 mm | - | - | - |
| 1778093858 | 8.89° C | 57% | 1010.5 hPa | 0 mm | - | - | - |
| 1778093558 | 8.89° C | 56% | 1010.6 hPa | 0 mm | - | - | - |
| 1778093258 | 8.33° C | 57% | 1010.5 hPa | 0 mm | - | - | - |
| 1778092957 | 8.89° C | 56% | 1010.6 hPa | 0 mm | - | - | - |
* Rain latest hour (hover to see other rain measurements)
** Current wind speed in m/s (hover to see current wind gust speed)